Torna al catalogo

IUS R/B(2)

AttivoGEO
NORAD 16119·ROCKET BODY·🇺🇸 United States

Lanciato Oct 3, 1985 da Cape Canaveral Space Force Station

Loading…

TLE

AggiornatoSource: Space-Track

Epoca: Sep 14, 2026, 08:22 UTC

1 16119U 85092E   26257.34884084  .00000087  00000-0  00000-0 0  9998
2 16119   9.8921 314.0421 0056664 184.5156 175.3957  1.01084040 26958

Traccia IUS R/B(2) in tempo reale con AllMySat

Download on the App Store